Regional Weather Roundup
Issued by NWS

Home | Current Version | Previous Version | Text Only | Print | Product List | Glossary On
Versions: 1 2 3 4 5 6 7 8 9 10 11 12 13 14 15 16 17 18 19 20 21 22 23 24 25 26 27 28 29 30 31 32 33 34 35 36 37 38 39 40 41 42 43 44 45 46 47 48 49 50
000
ASUS44 KMEG 270310
RWRTN
TENNESSEE HOURLY STATE WEATHER ROUNDUP
NATIONAL WEATHER SERVICE MEMPHIS TN
1000 PM CDT SAT MAY 26 2018

TNZ002-004-019-021-049-052-054-088>092-270400-
WEST TENNESSEE

CITY           SKY/WX    TMP DP  RH WIND       PRES   REMARKS
MEMPHIS INTL   MOCLDY    74  69  85 CALM      29.87R
NWS MEMPHIS      N/A     74 N/A N/A MISG        N/A
JACKSON        FAIR      75  71  87 S3        29.88R
DYERSBURG      FAIR      76  72  87 CALM      29.87R
SOMERVILLE     CLEAR     73  70  88 CALM      29.87R
COVINGTON      CLEAR     73  72  94 CALM      29.87R
UNION CITY     MOCLDY    77  72  83 CALM      29.86R
BOLIVAR        CLEAR     73  70  88 CALM      29.88R
PARIS          CLOUDY    73  70  88 SE3       29.89R
HUNTINGDON     PTCLDY    75  72  88 CALM      29.88R
LEXINGTON      CLEAR     72  70  94 CALM      29.89R
SELMER         CLEAR     73  72  94 CALM      29.89R
SAVANNAH       CLEAR     72  72 100 CALM      29.89R
$$

TNZ008-025-027-028-033-062-065-066-270400-
NORTH MIDDLE TENNESSEE

CITY           SKY/WX    TMP DP  RH WIND       PRES   REMARKS
NASHVILLE      FAIR      73  70  90 CALM      29.91R
DICKSON        CLEAR     70  70 100 VRB7G13   29.91R FOG
PORTLAND       PTCLDY    72  70  94 S6        29.92R
CLARKSVILLE    FAIR      72  67  84 SE3       29.89R
SMYRNA         FAIR      72  70  93 CALM      29.92R
MURFREESBORO   PTCLDY    73  68  83 CALM      29.91R
COOKEVILLE     MOCLDY    70  70 100 CALM      29.93R
LIVINGSTON     MOCLDY    68  66  94 S5        29.93R
CROSSVILLE     MOCLDY    67  66  97 CALM      29.98R
ROCKWOOD       CLOUDY    66  66 100 CALM      29.97R FOG
$$

TNZ061-075-076-078-094-096-097-270400-
SOUTH MIDDLE TENNESSEE

CITY           SKY/WX    TMP DP  RH WIND       PRES   REMARKS
LEWISBURG      PTCLDY    70  68  94 CALM      29.92R
TULLAHOMA      CLOUDY    70  66  88 CALM      29.93R
WINCHESTER     PTCLDY    70  70 100 CALM      29.93R
MCMINNVILLE    CLOUDY    72  68  88 CALM      29.93S
COLUMBIA       CLEAR     72  72 100 CALM      29.90R
SHELBYVILLE    PTCLDY    70  68  94 E5        29.92R
$$

TNZ017-018-042-046-047-270400-
NORTHEAST TENNESSEE

CITY           SKY/WX    TMP DP  RH WIND       PRES   REMARKS
TRI CITIES     MOCLDY    69  69 100 CALM      29.97R FOG
ELIZABETHTON     N/A     68  68 100 CALM      29.98R
GREENEVILLE    PTCLDY    70  68  94 CALM      29.97R
$$

TNZ012-013-036-069-073-074-270400-
CENTRAL EAST TENNESSEE

CITY           SKY/WX    TMP DP  RH WIND       PRES   REMARKS
KNOXVILLE      TSTM      71  69  93 CALM      29.93S FOG
OAK RIDGE      LGT RAIN  72  72 100 E5        29.95S
DOWNTOWN KNOXV   N/A     72  70  94 CALM      29.95R FOG
GATLINBURG     CLOUDY    72  70  94 W3        29.95R
MORRISTOWN     MOCLDY    70  70 100 CALM      29.96R
JACKSBORO      CLOUDY    72  70  94 CALM      29.99R
$$

TNZ083-085-099-270400-
SOUTHEAST TENNESSEE

CITY           SKY/WX    TMP DP  RH WIND       PRES   REMARKS
CHATTANOOGA    MOCLDY    76  66  71 S7        29.93R
DAYTON         MOCLDY    73  73 100 CALM      29.92R
$$

SKY/WX REPORTED AS FAIR MEANS FEW OR NO CLOUDS BELOW
12 THOUSAND FEET.




USA.gov is the U.S. government's official web portal to all federal, state and local government web resources and services.